Location: Alpha Ridge Park
(39.3209°N, 76.9128°W)
Time: 06:00:58
(UTC-04:00)

Tiros 1 despin weight - All Passes

Search period start: 23 May 2019 00:00
Search period end: 02 June 2019 00:00
Orbit: 594 x 643 km, 48.2° (Epoch: 23 May)

Date Brightness Start Highest point End Pass type
(mag) Time Alt. Az. Time Alt. Az. Time Alt. Az.
23 May - 10:52:38 10° SSW 10:56:53 43° SE 11:01:13 10° ENE daylight
23 May - 12:34:04 10° W 12:38:28 46° NNW 12:42:55 10° NE daylight
23 May - 14:16:53 10° WNW 14:20:49 27° N 14:24:47 10° NE daylight
23 May - 15:58:56 10° NW 16:03:17 37° NNE 16:07:38 10° E daylight
23 May - 17:40:27 10° WNW 17:45:06 67° SW 17:49:45 10° SE daylight
23 May - 19:24:14 10° WSW 19:26:00 12° SW 19:27:48 10° SSW daylight
24 May - 09:29:57 10° SSE 09:32:26 15° SE 09:34:56 10° E daylight
24 May - 11:08:55 10° SW 11:13:25 81° SE 11:18:00 10° ENE daylight
24 May - 12:51:12 10° W 12:55:20 33° NNW 12:59:34 10° NE daylight
24 May - 14:33:52 10° NW 14:37:50 27° N 14:41:51 10° ENE daylight
24 May - 16:15:33 10° NW 16:20:07 54° NNE 16:24:43 10° ESE daylight
24 May - 17:57:20 10° WNW 18:01:35 35° SW 18:05:51 10° SSE daylight
25 May - 09:44:53 10° SSW 09:48:44 29° SE 09:52:41 10° ENE daylight
25 May - 11:25:39 10° WSW 11:30:06 60° NNW 11:34:39 10° NE daylight
25 May - 13:08:22 10° WNW 13:12:19 28° N 13:16:19 10° NE daylight
25 May - 14:50:40 10° NW 14:54:49 32° NNE 14:59:02 10° ENE daylight
25 May - 16:32:09 10° WNW 16:36:50 88° NNE 16:41:32 10° ESE daylight
25 May - 18:14:46 10° W 18:17:57 18° SW 18:21:09 10° S daylight
26 May - 10:00:49 10° SW 10:05:12 57° SE 10:09:40 10° ENE daylight
26 May - 11:42:39 10° W 11:46:55 39° NNW 11:51:15 10° NE daylight
26 May - 13:25:27 10° WNW 13:29:21 27° N 13:33:17 10° ENE daylight
26 May - 15:07:18 10° NW 15:11:43 43° NNE 15:16:11 10° E daylight
26 May - 16:48:54 10° WNW 16:53:24 51° SW 16:57:56 10° SE daylight
27 May - 08:37:26 10° S 08:40:40 20° SE 08:43:55 10° E daylight
27 May - 10:17:18 10° WSW 10:21:48 80° NNW 10:26:22 10° ENE daylight
27 May - 11:59:49 10° WNW 12:03:51 30° NNW 12:07:56 10° NE daylight
27 May - 13:42:21 10° NW 13:46:21 29° N 13:50:24 10° ENE daylight
27 May - 15:23:54 10° NW 15:28:31 66° NNE 15:33:10 10° ESE daylight
27 May - 17:05:57 10° W 17:09:51 27° SW 17:13:46 10° SSE daylight
28 May - 08:52:54 10° SSW 08:57:01 38° SE 09:01:14 10° ENE daylight
28 May - 10:34:11 10° W 10:38:32 49° NNW 10:42:59 10° NE daylight
28 May - 12:16:59 10° WNW 12:20:51 27° N 12:24:46 10° NE daylight
28 May - 13:59:04 10° NW 14:03:19 35° NNE 14:07:36 10° E daylight
28 May - 15:40:33 10° WNW 15:45:10 73° SW 15:49:50 10° SE daylight
28 May - 17:23:54 10° WSW 17:26:09 13° SW 17:28:25 10° SSW daylight
29 May - 07:30:37 10° SSE 07:32:37 13° SE 07:34:38 10° ESE daylight
29 May - 09:09:06 10° SW 09:13:32 74° SE 09:18:04 10° ENE daylight
29 May - 10:51:17 10° W 10:55:25 34° NNW 10:59:36 10° NE daylight
29 May - 12:33:59 10° NW 12:37:52 27° N 12:41:48 10° ENE daylight
29 May - 14:15:41 10° NW 14:20:10 51° NNE 14:24:42 10° E daylight
29 May - 15:57:23 10° WNW 16:01:41 38° SW 16:06:01 10° SSE daylight
30 May - 07:45:13 10° SSW 07:48:54 26° SE 07:52:39 10° E daylight
30 May - 09:25:46 10° WSW 09:30:12 64° NNW 09:34:43 10° NE daylight
30 May - 11:08:27 10° WNW 11:12:22 28° N 11:16:20 10° NE daylight
30 May - 12:50:48 10° NW 12:54:52 31° NNE 12:58:59 10° ENE daylight
30 May - 14:32:16 10° WNW 14:36:54 82° NNE 14:41:34 10° ESE daylight
30 May - 16:14:42 10° W 16:18:04 20° SW 16:21:28 10° S daylight
31 May - 08:01:03 10° SW 08:05:20 51° SE 08:09:42 10° ENE daylight
31 May - 09:42:45 10° W 09:47:00 41° NNW 09:51:18 10° NE daylight
31 May - 11:25:33 10° WNW 11:29:23 26° N 11:33:15 10° ENE daylight
31 May - 13:07:27 10° NW 13:11:46 40° NNE 13:16:10 10° E daylight
31 May - 14:48:59 10° WNW 14:53:30 56° SW 14:58:03 10° SE daylight
01 Jun - 06:37:54 10° S 06:40:50 18° SE 06:43:48 10° E daylight
01 Jun - 08:17:28 10° WSW 08:21:55 86° NNW 08:26:26 10° ENE daylight
01 Jun - 09:59:54 10° WNW 10:03:54 31° NNW 10:07:57 10° NE daylight
01 Jun - 11:42:28 10° NW 11:46:24 28° N 11:50:21 10° ENE daylight
01 Jun - 13:24:03 10° NW 13:28:35 61° NNE 13:33:11 10° ESE daylight
01 Jun - 15:05:58 10° WNW 15:09:57 29° SW 15:13:58 10° SSE daylight
